COSMOS 1275 DEB, 18275

Orbit data source: Space-Track

COSMOS 1275 DEB, 18275 is space debris in LEO originally from a launch on Thu, 04 Jun 1981 UTC launched from the Plesetsk Missile And Space Complex (PKMTR). Debris objects in space refer to the collection of defunct objects orbiting the Earth. Examples of debris include non-operational satellites, rocket bodies, and fragments generated from explosions, collisions, or faulty payload assembly.

Loading next visibility...
Identifier
18275, 1981-053LQ
Orbit
LEO
Country
Flag of CISCIS
Related business
Manufacturer
Unknown
Mission
Spacecraft
Bus & Motor
Unknown
Mass
Unknown
Launch date (UTC)
1981-06-04 (45 years ago)
Launch vehicle
Unknown
Launch site
Plesetsk Missile And Space Complex (PKMTR)
Object type
Payload
Rocket body
Debris
Shape & HBR
Unknown shape, 0.1 m
Radar Cross Section
Small (<0.1 m²)

Expand to show TLE details & history
Last TLE update: 18 hours ago

TLE from 18 hours ago
0 COSMOS 1275 DEB
1 18275U 81053LQ  26104.31258868  .00000003  00000-0 -14265-4 0  9990
2 18275  82.9253 230.4191 0137271 127.7331 262.3834 13.69301306 47606
Epoch: 2026-04-14T07:30Z
TLE epoch observation values (Epoch: 2026-04-14T07:30:07.661Z)
Latitude
28.36645°
Longitude
-80.78101°
Altitude
1,020.36 km
Speed
7.337 km/s
True Right ascension
15h 36m 57s
True Declination
28° 13' 41"
Sunlit
Object was in full shadow at epoch
Visualization orbit readout
Latitude
Unknown
Longitude
Unknown
Altitude
Unknown
Speed
Unknown
Apparent Right ascension
Unknown
Apparent Declination
Unknown
Sunlit
N/A
Visualization observer readout
Local Sidereal Time
08:13:31
Azimuth
Unknown
Elevation
Unknown
Doppler factor
Unknown
Orbital elements
Apogee altitude
1,100.507 km
Perigee altitude
897.967 km
Semi-major axis
7,377.374 km
Eccentricity
0.01373
Inclination
82.9253°
RAAN
230.4191°
Arg. of periapsis
127.7331°
True anomaly
260.828°
Mean anomaly
262.3834°
Eccentric anomaly
261.60532°
Mean motion
3.42524 °/min
Orbital period
105.1 mins
BSTAR
-0.000014265
Loading maneuver chart data...
Computing Atmospheric mass density...
Loading historical data...
Loading historical data...
Loading historical data...
Loading historical data...
Loading historical data...
Loading historical data...
Loading historical data...

Documentation

Showing up to 5 results
|